Location: Unspecified
(42.3650°N, 71.1030°W)
Time: 15:04:16
(UTC+00:00)

Tiros 1 - Pass Details

Date: 26 June 2024
Orbit: 624 x 656 km, 48.4° (Epoch: 13 July)

Event Time Altitude Azimuth Distance (km) Brightness Sun altitude
Rises 01:44:54 0° 194° (SSW) 2,888 - -12.0°
Reaches altitude 10° 01:47:54 10° 173° (S) 1,985 - -12.3°
Maximum altitude 01:50:48 17° 134° (SE) 1,586 - -12.7°
Exits shadow 01:53:26 11° 97° (E) 1,925 9.2 -13.0°
Drops below altitude 10° 01:53:43 10° 94° (E) 1,992 9.3 -13.1°
Sets 01:56:44 0° 74° (ENE) 2,905 10.3 -13.4°
